GW5660 Weather Reports


time (UTC)temp
C
wind
direction
speed
KPH
gust
KPH
rain 1hr
cm
rain 24hr
cm
rain mn
cm
humidity
%
barometer
mb
20260906053017 23 293 1.6 4.8 0.00 0.00 0.00 55 1017.8
20260906052025 22 303 3.2 4.8 0.00 0.00 0.00 57 1017.8
20260906051038 22 293 3.2 3.2 0.00 0.00 0.00 59 1017.8
20260906050025 22 309 1.6 3.2 0.00 0.00 0.00 56 1017.8
20260906045019 22 317 3.2 3.2 0.00 0.00 0.00 56 1017.7
20260906044025 21 357 3.2 3.2 0.00 0.00 0.00 60 1017.7
20260906043018 20 301 3.2 3.2 0.00 0.00 0.00 63 1017.6
20260906042026 20 301 3.2 4.8 0.00 0.00 0.00 63 1017.6
20260906041018 21 292 3.2 4.8 0.00 0.00 0.00 63 1017.5
20260906040025 21 292 1.6 3.2 0.00 0.00 0.00 62 1017.4
20260906035019 22 293 1.6 1.6 0.00 0.00 0.00 60 1017.3
20260906034027 21 293 1.6 3.2 0.00 0.00 0.00 60 1017.2
20260906033019 21 293 1.6 3.2 0.00 0.00 0.00 61 1017.3
20260906032047 21 0.0 0.0 0.00 0.00 0.00 62 1017.2
20260906031039 21 301 0.0 1.6 0.00 0.00 0.00 61 1017.2
20260906030027 22 291 1.6 3.2 0.00 0.00 0.00 59 1017.2
20260906025019 23 283 1.6 3.2 0.00 0.00 0.00 57 1017.2
20260906024027 22 359 1.6 3.2 0.00 0.00 0.00 59 1017.2
20260906023019 21 315 4.8 4.8 0.00 0.00 0.00 63 1017.2
20260906022027 21 296 3.2 4.8 0.00 0.00 0.00 64 1017.2
20260906021019 22 285 3.2 4.8 0.00 0.00 0.00 62 1017.2
20260906020048 21 307 3.2 4.8 0.00 0.00 0.00 65 1017.2
20260906015018 21 293 3.2 4.8 0.00 0.00 0.00 65 1017.2
20260906014027 21 303 3.2 4.8 0.00 0.00 0.00 66 1017.1
20260906013019 21 305 3.2 4.8 0.00 0.00 0.00 64 1017.2
20260906012027 21 296 3.2 3.2 0.00 0.00 0.00 63 1017.2
20260906011019 21 318 3.2 3.2 0.00 0.00 0.00 65 1017.3
20260906010027 21 319 3.2 4.8 0.00 0.00 0.00 62 1017.3
20260906005019 22 282 3.2 4.8 0.00 0.00 0.00 62 1017.2
20260906004027 21 291 1.6 3.2 0.00 0.00 0.00 63 1017.2
20260906003039 22 245 1.6 3.2 0.00 0.00 0.00 61 1017.2
20260906002027 22 263 1.6 3.2 0.00 0.00 0.00 59 1017.2
20260906001039 22 261 1.6 1.6 0.00 0.00 0.00 58 1017.2
20260906000027 22 271 1.6 3.2 0.00 0.00 0.00 60 1017.4
20260905235019 21 291 3.2 3.2 0.00 0.00 0.00 59 1017.5
20260905234047 21 297 3.2 3.2 0.00 0.00 0.00 59 1017.6
20260905233020 21 302 4.8 4.8 0.00 0.00 0.00 58 1017.5
20260905232027 22 293 3.2 4.8 0.00 0.00 0.00 57 1017.6
20260905231018 22 294 4.8 4.8 0.00 0.00 0.00 54 1017.6
20260905230027 23 0.0 0.0 0.00 0.00 0.00 54 1017.6
20260905225019 23 0.0 0.0 0.00 0.00 0.00 55 1017.7
20260905224047 24 283 0.0 1.6 0.00 0.00 0.00 56 1017.8
20260905223019 23 284 1.6 3.2 0.00 0.00 0.00 57 1017.8
20260905222047 23 0.0 0.0 0.00 0.00 0.00 58 1017.7
20260905221018 24 0.0 0.0 0.00 0.00 0.00 57 1017.6
20260905220027 24 0.0 0.0 0.00 0.00 0.00 56 1017.7
20260905215019 24 0.0 0.0 0.00 0.00 0.00 55 1017.6
20260905214027 24 0.0 0.0 0.00 0.00 0.00 54 1017.6
20260905213019 25 0.0 0.0 0.00 0.00 0.00 53 1017.6
20260905212026 25 0.0 0.0 0.00 0.00 0.00 52 1017.6
20260905211019 25 0.0 0.0 0.00 0.00 0.00 50 1017.6
20260905210027 25 0.0 0.0 0.00 0.00 0.00 50 1017.6
20260905205019 25 0.0 0.0 0.00 0.00 0.00 50 1017.6
20260905204027 25 0.0 0.0 0.00 0.00 0.00 49 1017.7
20260905203019 25 0.0 0.0 0.00 0.00 0.00 48 1017.7
20260905202028 25 172 1.6 4.8 0.00 0.00 0.00 48 1017.8
20260905201019 25 210 3.2 4.8 0.00 0.00 0.00 46 1017.8
20260905200027 26 229 0.0 1.6 0.00 0.00 0.00 47 1017.8
20260905195019 26 262 0.0 1.6 0.00 0.00 0.00 47 1017.9
20260905194047 26 0.0 0.0 0.00 0.00 0.00 47 1018.0
20260905193059 26 291 0.0 3.2 0.00 0.00 0.00 46 1018.0
20260905192027 27 0.0 0.0 0.00 0.00 0.00 45 1017.9
20260905191039 26 0.0 0.0 0.00 0.00 0.00 46 1017.8
20260905190027 26 301 1.6 3.2 0.00 0.00 0.00 47 1017.5
20260905185019 26 294 1.6 3.2 0.00 0.00 0.00 45 1017.4
20260905184027 27 294 1.6 3.2 0.00 0.00 0.00 42 1017.3
20260905183019 27 268 3.2 4.8 0.00 0.00 0.00 42 1017.2
20260905182027 27 267 4.8 6.4 0.00 0.00 0.00 42 1017.1
20260905181039 28 278 4.8 4.8 0.00 0.00 0.00 39 1017.0
20260905180027 29 265 3.2 3.2 0.00 0.00 0.00 38 1016.9
20260905175040 29 153 1.6 3.2 0.00 0.00 0.00 38 1016.7
20260905174025 30 152 1.6 3.2 0.00 0.00 0.00 37 1016.7
20260905173037 30 152 1.6 1.6 0.00 0.00 0.00 37 1016.7
20260905172025 30 0.0 0.0 0.00 0.00 0.00 36 1016.7
20260905171017 31 151 0.0 1.6 0.00 0.00 0.00 35 1016.5
20260905170025 31 156 3.2 4.8 0.00 0.00 0.00 34 1016.5
20260905165017 31 169 4.8 4.8 0.00 0.00 0.00 32 1016.5
20260905164046 32 172 4.8 6.4 0.00 0.00 0.00 32 1016.5
20260905163017 32 184 8.0 11.3 0.00 0.00 0.00 31 1016.7
20260905162024 32 172 6.4 11.3 0.00 0.00 0.00 31 1016.7
20260905161017 33 200 6.4 11.3 0.00 0.00 0.00 29 1016.6
20260905160025 33 182 9.7 14.5 0.00 0.00 0.00 30 1016.5
20260905155017 33 193 9.7 14.5 0.00 0.00 0.00 29 1016.7
20260905154026 33 194 12.9 16.1 0.00 0.00 0.00 29 1016.6
20260905153037 33 216 8.0 14.5 0.00 0.00 0.00 29 1016.5
20260905152025 33 191 11.3 16.1 0.00 0.00 0.00 28 1016.6
20260905151018 33 205 11.3 16.1 0.00 0.00 0.00 28 1016.6
20260905150025 33 236 12.9 17.7 0.00 0.00 0.00 28 1016.6
20260905145018 33 233 12.9 20.9 0.00 0.00 0.00 29 1016.8
20260905144026 33 242 12.9 20.9 0.00 0.00 0.00 29 1016.9
20260905143017 33 234 14.5 22.5 0.00 0.00 0.00 28 1016.8
20260905142025 34 235 12.9 20.9 0.00 0.00 0.00 27 1016.9
20260905141037 33 238 14.5 20.9 0.00 0.00 0.00 27 1017.0
20260905140025 34 225 12.9 22.5 0.00 0.00 0.00 27 1016.9
20260905135017 34 232 14.5 22.5 0.00 0.00 0.00 27 1016.9
20260905134045 34 240 12.9 20.9 0.00 0.00 0.00 26 1017.0
20260905133017 33 240 16.1 24.1 0.00 0.00 0.00 27 1017.2
20260905132025 34 245 19.3 27.4 0.00 0.00 0.00 27 1017.2
20260905131057 34 231 16.1 22.5 0.00 0.00 0.00 27 1017.2
20260905130025 34 225 16.1 25.7 0.00 0.00 0.00 27 1017.2
20260905125018 33 246 17.7 25.7 0.00 0.00 0.00 27 1017.3
20260905124025 34 233 17.7 25.7 0.00 0.00 0.00 27 1017.3
20260905123017 34 222 16.1 24.1 0.00 0.00 0.00 27 1017.4
20260905122025 34 232 16.1 24.1 0.00 0.00 0.00 27 1017.5
20260905121017 34 228 17.7 25.7 0.00 0.00 0.00 27 1017.6
20260905120026 34 238 12.9 20.9 0.00 0.00 0.00 26 1017.6
20260905115017 34 239 17.7 25.7 0.00 0.00 0.00 26 1017.6
20260905114025 34 251 17.7 24.1 0.00 0.00 0.00 26 1017.6
20260905113037 33 251 12.9 24.1 0.00 0.00 0.00 27 1017.6
20260905112025 33 261 14.5 24.1 0.00 0.00 0.00 27 1017.6
20260905111037 33 235 16.1 24.1 0.00 0.00 0.00 27 1017.6
20260905110045 33 231 16.1 24.1 0.00 0.00 0.00 27 1017.6
20260905105017 33 243 16.1 24.1 0.00 0.00 0.00 28 1017.7
20260905104025 34 269 12.9 22.5 0.00 0.00 0.00 27 1017.7
20260905103017 34 172 11.3 20.9 0.00 0.00 0.00 29 1017.8
20260905102025 34 151 6.4 9.7 0.00 0.00 0.00 26 1017.9
20260905101017 35 52 3.2 9.7 0.00 0.00 0.00 26 1018.0
20260905100045 34 25 4.8 9.7 0.00 0.00 0.00 26 1018.0
20260905095017 34 149 3.2 9.7 0.00 0.00 0.00 26 1018.0
20260905094025 33 324 4.8 9.7 0.00 0.00 0.00 27 1018.2
20260905093017 33 97 6.4 11.3 0.00 0.00 0.00 27 1018.2
20260905092025 33 79 4.8 9.7 0.00 0.00 0.00 27 1018.4
20260905091017 33 55 4.8 6.4 0.00 0.00 0.00 27 1018.4
20260905090026 33 87 4.8 9.7 0.00 0.00 0.00 28 1018.4
20260905085017 35 76 3.2 11.3 0.00 0.00 0.00 27 1018.5
20260905084027 33 319 1.6 3.2 0.00 0.00 0.00 28 1018.6
20260905083017 32 3 1.6 6.4 0.00 0.00 0.00 29 1018.6
20260905082025 32 42 4.8 9.7 0.00 0.00 0.00 29 1018.6
20260905081017 32 90 3.2 6.4 0.00 0.00 0.00 30 1018.4
20260905080025 32 81 1.6 3.2 0.00 0.00 0.00 30 1018.2
20260905075017 31 113 1.6 4.8 0.00 0.00 0.00 31 1018.2
20260905074025 31 341 3.2 6.4 0.00 0.00 0.00 32 1018.1
20260905073017 31 49 1.6 4.8 0.00 0.00 0.00 31 1018.2
20260905072025 31 347 3.2 6.4 0.00 0.00 0.00 31 1018.1
20260905071017 30 67 1.6 4.8 0.00 0.00 0.00 32 1018.0
20260905070025 30 288 3.2 4.8 0.00 0.00 0.00 32 1018.0
20260905065017 29 299 3.2 6.4 0.00 0.00 0.00 34 1018.1
20260905064025 28 299 4.8 6.4 0.00 0.00 0.00 36 1018.1
20260905063017 28 282 4.8 9.7 0.00 0.00 0.00 37 1018.1
20260905062045 28 286 3.2 6.4 0.00 0.00 0.00 39 1018.1
20260905061017 27 295 1.6 6.4 0.00 0.00 0.00 42 1018.0
20260905060025 26 289 4.8 11.3 0.00 0.00 0.00 43 1018.0
20260905055017 25 292 6.4 11.3 0.00 0.00 0.00 45 1018.0
20260905054025 25 279 4.8 12.9 0.00 0.00 0.00 47 1017.9